#datetime,building,power
2023-05-31T00:00:00,axn,26.68
2023-05-31T00:01:00,axn,26.79
2023-05-31T00:02:00,axn,26.74
2023-05-31T00:03:00,axn,26.93
2023-05-31T00:04:00,axn,26.27
2023-05-31T00:05:00,axn,26.77
2023-05-31T00:06:00,axn,26.55
2023-05-31T00:07:00,axn,26.56
2023-05-31T00:08:00,axn,26.05
2023-05-31T00:09:00,axn,26.12
2023-05-31T00:10:00,axn,26.39
2023-05-31T00:11:00,axn,26.24
2023-05-31T00:12:00,axn,26.27
2023-05-31T00:13:00,axn,26.41
2023-05-31T00:14:00,axn,26.38
2023-05-31T00:15:00,axn,26.47
2023-05-31T00:16:00,axn,26.57
2023-05-31T00:17:00,axn,26.55
2023-05-31T00:18:00,axn,26.31
2023-05-31T00:19:00,axn,26.36
2023-05-31T00:20:00,axn,26.36
2023-05-31T00:21:00,axn,26.58
2023-05-31T00:22:00,axn,26.62
2023-05-31T00:23:00,axn,26.42
2023-05-31T00:24:00,axn,26.68
2023-05-31T00:25:00,axn,27.01
2023-05-31T00:26:00,axn,26.60
2023-05-31T00:27:00,axn,26.77
2023-05-31T00:28:00,axn,26.72
2023-05-31T00:29:00,axn,26.61
2023-05-31T00:30:00,axn,26.79
2023-05-31T00:31:00,axn,29.90
2023-05-31T00:32:00,axn,26.59
2023-05-31T00:33:00,axn,31.23
2023-05-31T00:34:00,axn,31.36
2023-05-31T00:35:00,axn,30.99
2023-05-31T00:36:00,axn,31.05
2023-05-31T00:37:00,axn,26.47
2023-05-31T00:38:00,axn,26.56
2023-05-31T00:39:00,axn,26.92
2023-05-31T00:40:00,axn,26.58
2023-05-31T00:41:00,axn,26.85
2023-05-31T00:42:00,axn,26.62
2023-05-31T00:43:00,axn,26.71
2023-05-31T00:44:00,axn,26.39
2023-05-31T00:45:00,axn,26.47
2023-05-31T00:46:00,axn,26.49
2023-05-31T00:47:00,axn,26.58
2023-05-31T00:48:00,axn,26.74
2023-05-31T00:49:00,axn,26.57
2023-05-31T00:50:00,axn,26.63
2023-05-31T00:51:00,axn,26.58
2023-05-31T00:52:00,axn,26.61
2023-05-31T00:53:00,axn,26.73
2023-05-31T00:54:00,axn,26.52
2023-05-31T00:55:00,axn,26.51
2023-05-31T00:56:00,axn,26.03
2023-05-31T00:57:00,axn,26.03
2023-05-31T00:58:00,axn,28.33
2023-05-31T00:59:00,axn,25.46
2023-05-31T01:00:00,axn,25.62
2023-05-31T01:01:00,axn,25.32
2023-05-31T01:02:00,axn,25.72
2023-05-31T01:03:00,axn,25.62
2023-05-31T01:04:00,axn,25.53
2023-05-31T01:05:00,axn,25.73
2023-05-31T01:06:00,axn,25.49
2023-05-31T01:07:00,axn,25.55
2023-05-31T01:08:00,axn,28.38
2023-05-31T01:09:00,axn,28.39
2023-05-31T01:10:00,axn,28.31
2023-05-31T01:11:00,axn,25.61
2023-05-31T01:12:00,axn,25.59
2023-05-31T01:13:00,axn,25.55
2023-05-31T01:14:00,axn,25.52
2023-05-31T01:15:00,axn,25.60
2023-05-31T01:16:00,axn,25.78
2023-05-31T01:17:00,axn,25.57
2023-05-31T01:18:00,axn,25.57
2023-05-31T01:19:00,axn,25.52
2023-05-31T01:20:00,axn,25.52
2023-05-31T01:21:00,axn,25.57
2023-05-31T01:22:00,axn,25.45
2023-05-31T01:23:00,axn,25.61
2023-05-31T01:24:00,axn,25.51
2023-05-31T01:25:00,axn,25.50
2023-05-31T01:26:00,axn,25.54
2023-05-31T01:27:00,axn,25.49
2023-05-31T01:28:00,axn,25.57
2023-05-31T01:29:00,axn,25.55
2023-05-31T01:30:00,axn,25.93
2023-05-31T01:31:00,axn,25.08
2023-05-31T01:32:00,axn,25.49
2023-05-31T01:33:00,axn,25.53
2023-05-31T01:34:00,axn,25.51
2023-05-31T01:35:00,axn,25.95
2023-05-31T01:36:00,axn,25.53
2023-05-31T01:37:00,axn,26.06
2023-05-31T01:38:00,axn,25.69
2023-05-31T01:39:00,axn,25.59
2023-05-31T01:40:00,axn,25.61
2023-05-31T01:41:00,axn,25.77
2023-05-31T01:42:00,axn,26.03
2023-05-31T01:43:00,axn,26.07
2023-05-31T01:44:00,axn,25.90
2023-05-31T01:45:00,axn,25.91
2023-05-31T01:46:00,axn,26.01
2023-05-31T01:47:00,axn,25.88
2023-05-31T01:48:00,axn,25.93
2023-05-31T01:49:00,axn,25.95
2023-05-31T01:50:00,axn,26.30
2023-05-31T01:51:00,axn,26.05
2023-05-31T01:52:00,axn,26.05
2023-05-31T01:53:00,axn,26.25
2023-05-31T01:54:00,axn,26.25
2023-05-31T01:55:00,axn,26.17
2023-05-31T01:56:00,axn,26.19
2023-05-31T01:57:00,axn,26.15
2023-05-31T01:58:00,axn,26.15
2023-05-31T01:59:00,axn,26.62
2023-05-31T02:00:00,axn,26.23
2023-05-31T02:01:00,axn,26.46
2023-05-31T02:02:00,axn,26.43
2023-05-31T02:03:00,axn,26.27
2023-05-31T02:04:00,axn,26.28
2023-05-31T02:05:00,axn,26.20
2023-05-31T02:06:00,axn,26.19
2023-05-31T02:07:00,axn,26.32
2023-05-31T02:08:00,axn,26.33
2023-05-31T02:09:00,axn,25.92
2023-05-31T02:10:00,axn,25.86
2023-05-31T02:11:00,axn,25.86
2023-05-31T02:12:00,axn,25.74
2023-05-31T02:13:00,axn,25.59
2023-05-31T02:14:00,axn,25.83
2023-05-31T02:15:00,axn,25.66
2023-05-31T02:16:00,axn,25.76
2023-05-31T02:17:00,axn,26.07
2023-05-31T02:18:00,axn,25.88
2023-05-31T02:19:00,axn,25.89
2023-05-31T02:20:00,axn,25.79
2023-05-31T02:21:00,axn,25.71
2023-05-31T02:22:00,axn,25.82
2023-05-31T02:23:00,axn,25.62
2023-05-31T02:24:00,axn,25.72
2023-05-31T02:25:00,axn,25.88
2023-05-31T02:26:00,axn,25.77
2023-05-31T02:27:00,axn,26.32
2023-05-31T02:28:00,axn,25.97
2023-05-31T02:29:00,axn,26.67
2023-05-31T02:30:00,axn,26.22
2023-05-31T02:31:00,axn,26.23
2023-05-31T02:32:00,axn,25.95
2023-05-31T02:33:00,axn,26.02
2023-05-31T02:34:00,axn,25.87
2023-05-31T02:35:00,axn,25.98
2023-05-31T02:36:00,axn,26.16
2023-05-31T02:37:00,axn,26.18
2023-05-31T02:38:00,axn,26.22
2023-05-31T02:39:00,axn,26.19
2023-05-31T02:40:00,axn,26.73
2023-05-31T02:41:00,axn,26.28
2023-05-31T02:42:00,axn,26.36
2023-05-31T02:43:00,axn,26.33
2023-05-31T02:44:00,axn,26.60
2023-05-31T02:45:00,axn,26.90
2023-05-31T02:46:00,axn,26.03
2023-05-31T02:47:00,axn,26.11
2023-05-31T02:48:00,axn,26.21
2023-05-31T02:49:00,axn,26.10
2023-05-31T02:50:00,axn,25.96
2023-05-31T02:51:00,axn,26.14
2023-05-31T02:52:00,axn,25.96
2023-05-31T02:53:00,axn,25.77
2023-05-31T02:54:00,axn,25.78
2023-05-31T02:55:00,axn,25.82
2023-05-31T02:56:00,axn,26.21
2023-05-31T02:57:00,axn,25.76
2023-05-31T02:58:00,axn,25.85
2023-05-31T02:59:00,axn,25.83
2023-05-31T03:00:00,axn,25.95
2023-05-31T03:01:00,axn,26.44
2023-05-31T03:02:00,axn,25.70
2023-05-31T03:03:00,axn,25.75
2023-05-31T03:04:00,axn,25.89
2023-05-31T03:05:00,axn,25.72
2023-05-31T03:06:00,axn,25.36
2023-05-31T03:07:00,axn,25.43
2023-05-31T03:08:00,axn,25.54
2023-05-31T03:09:00,axn,25.45
2023-05-31T03:10:00,axn,25.45
2023-05-31T03:11:00,axn,25.74
2023-05-31T03:12:00,axn,25.70
2023-05-31T03:13:00,axn,25.72
2023-05-31T03:14:00,axn,26.06
2023-05-31T03:15:00,axn,26.26
2023-05-31T03:16:00,axn,26.05
2023-05-31T03:17:00,axn,25.95
2023-05-31T03:18:00,axn,25.97
2023-05-31T03:19:00,axn,26.16
2023-05-31T03:20:00,axn,26.40
2023-05-31T03:21:00,axn,25.93
2023-05-31T03:22:00,axn,25.89
2023-05-31T03:23:00,axn,25.80
2023-05-31T03:24:00,axn,25.79
2023-05-31T03:25:00,axn,25.84
2023-05-31T03:26:00,axn,25.97
2023-05-31T03:27:00,axn,26.12
2023-05-31T03:28:00,axn,26.08
2023-05-31T03:29:00,axn,25.99
2023-05-31T03:30:00,axn,25.88
2023-05-31T03:31:00,axn,25.85
2023-05-31T03:32:00,axn,25.80
2023-05-31T03:33:00,axn,28.76
2023-05-31T03:34:00,axn,28.76
2023-05-31T03:35:00,axn,25.95
2023-05-31T03:36:00,axn,25.97
2023-05-31T03:37:00,axn,25.95
2023-05-31T03:38:00,axn,26.16
2023-05-31T03:39:00,axn,26.13
2023-05-31T03:40:00,axn,26.37
2023-05-31T03:41:00,axn,26.44
2023-05-31T03:42:00,axn,31.90
2023-05-31T03:43:00,axn,26.76
2023-05-31T03:44:00,axn,25.85
2023-05-31T03:45:00,axn,26.13
2023-05-31T03:46:00,axn,25.75
2023-05-31T03:47:00,axn,26.02
2023-05-31T03:48:00,axn,25.64
2023-05-31T03:49:00,axn,25.83
2023-05-31T03:50:00,axn,25.84
2023-05-31T03:51:00,axn,25.72
2023-05-31T03:52:00,axn,26.02
2023-05-31T03:53:00,axn,25.83
2023-05-31T03:54:00,axn,25.67
2023-05-31T03:55:00,axn,25.96
2023-05-31T03:56:00,axn,25.58
2023-05-31T03:57:00,axn,25.56
2023-05-31T03:58:00,axn,25.49
2023-05-31T03:59:00,axn,25.57
2023-05-31T04:00:00,axn,25.85
2023-05-31T04:01:00,axn,25.48
2023-05-31T04:02:00,axn,25.50
2023-05-31T04:03:00,axn,25.28
2023-05-31T04:04:00,axn,25.33
2023-05-31T04:05:00,axn,25.45
2023-05-31T04:06:00,axn,25.34
2023-05-31T04:07:00,axn,25.34
2023-05-31T04:08:00,axn,25.41
2023-05-31T04:09:00,axn,25.91
2023-05-31T04:10:00,axn,25.85
2023-05-31T04:11:00,axn,26.80
2023-05-31T04:12:00,axn,26.27
2023-05-31T04:13:00,axn,26.06
2023-05-31T04:14:00,axn,26.40
2023-05-31T04:15:00,axn,43.59
2023-05-31T04:16:00,axn,32.78
2023-05-31T04:17:00,axn,32.89
2023-05-31T04:18:00,axn,29.67
2023-05-31T04:19:00,axn,27.16
2023-05-31T04:20:00,axn,27.01
2023-05-31T04:21:00,axn,27.01
2023-05-31T04:22:00,axn,26.70
2023-05-31T04:23:00,axn,26.68
2023-05-31T04:24:00,axn,26.55
2023-05-31T04:25:00,axn,26.58
2023-05-31T04:26:00,axn,26.32
2023-05-31T04:27:00,axn,26.30
2023-05-31T04:28:00,axn,26.43
2023-05-31T04:29:00,axn,26.62
2023-05-31T04:30:00,axn,26.28
2023-05-31T04:31:00,axn,24.10
2023-05-31T04:32:00,axn,24.21
2023-05-31T04:33:00,axn,24.00
2023-05-31T04:34:00,axn,24.00
2023-05-31T04:35:00,axn,24.06
2023-05-31T04:36:00,axn,23.83
2023-05-31T04:37:00,axn,23.59
2023-05-31T04:38:00,axn,23.67
2023-05-31T04:39:00,axn,23.66
2023-05-31T04:40:00,axn,23.87
2023-05-31T04:41:00,axn,23.84
2023-05-31T04:42:00,axn,26.63
2023-05-31T04:43:00,axn,26.67
2023-05-31T04:44:00,axn,26.68
2023-05-31T04:45:00,axn,23.83
2023-05-31T04:46:00,axn,23.96
2023-05-31T04:47:00,axn,23.76
2023-05-31T04:48:00,axn,24.34
2023-05-31T04:49:00,axn,24.06
2023-05-31T04:50:00,axn,23.78
2023-05-31T04:51:00,axn,23.66
2023-05-31T04:52:00,axn,23.50
2023-05-31T04:53:00,axn,23.86
2023-05-31T04:54:00,axn,24.68
2023-05-31T04:55:00,axn,24.07
2023-05-31T04:56:00,axn,23.93
2023-05-31T04:57:00,axn,23.86
2023-05-31T04:58:00,axn,24.34
2023-05-31T04:59:00,axn,24.27
2023-05-31T05:00:00,axn,24.41
2023-05-31T05:01:00,axn,23.51
2023-05-31T05:02:00,axn,23.51
2023-05-31T05:03:00,axn,23.45
2023-05-31T05:04:00,axn,49.03
2023-05-31T05:05:00,axn,37.83
2023-05-31T05:06:00,axn,37.65
2023-05-31T05:07:00,axn,37.30
2023-05-31T05:08:00,axn,37.22
2023-05-31T05:09:00,axn,23.20
2023-05-31T05:10:00,axn,23.33
2023-05-31T05:11:00,axn,23.37
2023-05-31T05:12:00,axn,23.18
2023-05-31T05:13:00,axn,23.57
2023-05-31T05:14:00,axn,23.59
2023-05-31T05:15:00,axn,23.19
2023-05-31T05:16:00,axn,23.42
2023-05-31T05:17:00,axn,22.86
2023-05-31T05:18:00,axn,22.87
2023-05-31T05:19:00,axn,22.83
2023-05-31T05:20:00,axn,22.78
2023-05-31T05:21:00,axn,22.68
2023-05-31T05:22:00,axn,22.75
2023-05-31T05:23:00,axn,22.76
2023-05-31T05:24:00,axn,22.66
2023-05-31T05:25:00,axn,22.55
2023-05-31T05:26:00,axn,22.86
2023-05-31T05:27:00,axn,22.43
2023-05-31T05:28:00,axn,22.52
2023-05-31T05:29:00,axn,22.56
2023-05-31T05:30:00,axn,22.54
2023-05-31T05:31:00,axn,26.06
2023-05-31T05:32:00,axn,25.80
2023-05-31T05:33:00,axn,25.76
2023-05-31T05:34:00,axn,25.74
2023-05-31T05:35:00,axn,25.65
2023-05-31T05:36:00,axn,25.61
2023-05-31T05:37:00,axn,25.80
2023-05-31T05:38:00,axn,25.84
2023-05-31T05:39:00,axn,25.89
2023-05-31T05:40:00,axn,25.91
2023-05-31T05:41:00,axn,25.82
2023-05-31T05:42:00,axn,25.73
2023-05-31T05:43:00,axn,25.58
2023-05-31T05:44:00,axn,25.67
2023-05-31T05:45:00,axn,25.81
2023-05-31T05:46:00,axn,25.89
2023-05-31T05:47:00,axn,25.93
2023-05-31T05:48:00,axn,25.93
2023-05-31T05:49:00,axn,25.95
2023-05-31T05:50:00,axn,25.88
2023-05-31T05:51:00,axn,25.82
2023-05-31T05:52:00,axn,25.77
2023-05-31T05:53:00,axn,25.65
2023-05-31T05:54:00,axn,25.61
2023-05-31T05:55:00,axn,25.66
2023-05-31T05:56:00,axn,25.55
2023-05-31T05:57:00,axn,25.80
2023-05-31T05:58:00,axn,26.10
2023-05-31T05:59:00,axn,25.97
2023-05-31T06:00:00,axn,26.13
2023-05-31T06:01:00,axn,26.29
2023-05-31T06:02:00,axn,25.66
2023-05-31T06:03:00,axn,25.69
2023-05-31T06:04:00,axn,25.70
2023-05-31T06:05:00,axn,25.80
2023-05-31T06:06:00,axn,25.65
2023-05-31T06:07:00,axn,25.40
2023-05-31T06:08:00,axn,25.56
2023-05-31T06:09:00,axn,25.66
2023-05-31T06:10:00,axn,25.45
2023-05-31T06:11:00,axn,25.48
2023-05-31T06:12:00,axn,25.12
2023-05-31T06:13:00,axn,25.08
2023-05-31T06:14:00,axn,24.93
2023-05-31T06:15:00,axn,24.98
2023-05-31T06:16:00,axn,25.55
2023-05-31T06:17:00,axn,25.59
2023-05-31T06:18:00,axn,25.26
2023-05-31T06:19:00,axn,25.60
2023-05-31T06:20:00,axn,25.06
2023-05-31T06:21:00,axn,25.07
2023-05-31T06:22:00,axn,25.26
2023-05-31T06:23:00,axn,25.24
2023-05-31T06:24:00,axn,25.18
2023-05-31T06:25:00,axn,25.51
2023-05-31T06:26:00,axn,24.92
2023-05-31T06:27:00,axn,24.95
2023-05-31T06:28:00,axn,35.13
2023-05-31T06:29:00,axn,35.44
2023-05-31T06:30:00,axn,34.91
2023-05-31T06:31:00,axn,34.56
2023-05-31T06:32:00,axn,24.79
2023-05-31T06:33:00,axn,24.77
2023-05-31T06:34:00,axn,24.48
2023-05-31T06:35:00,axn,24.46
2023-05-31T06:36:00,axn,24.25
2023-05-31T06:37:00,axn,24.60
2023-05-31T06:38:00,axn,24.40
2023-05-31T06:39:00,axn,24.41
2023-05-31T06:40:00,axn,24.44
2023-05-31T06:41:00,axn,24.45
2023-05-31T06:42:00,axn,24.51
2023-05-31T06:43:00,axn,24.40
2023-05-31T06:44:00,axn,24.54
2023-05-31T06:45:00,axn,24.50
2023-05-31T06:46:00,axn,24.43
2023-05-31T06:47:00,axn,24.41
2023-05-31T06:48:00,axn,24.55
2023-05-31T06:49:00,axn,24.28
2023-05-31T06:50:00,axn,24.58
2023-05-31T06:51:00,axn,24.50
2023-05-31T06:52:00,axn,24.42
2023-05-31T06:53:00,axn,24.92
2023-05-31T06:54:00,axn,24.53
2023-05-31T06:55:00,axn,24.24
2023-05-31T06:56:00,axn,25.11
2023-05-31T06:57:00,axn,24.64
2023-05-31T06:58:00,axn,24.63
2023-05-31T06:59:00,axn,27.66
2023-05-31T07:00:00,axn,24.82
2023-05-31T07:01:00,axn,28.61
2023-05-31T07:02:00,axn,29.76
2023-05-31T07:03:00,axn,29.76
2023-05-31T07:04:00,axn,29.81
2023-05-31T07:05:00,axn,29.63
2023-05-31T07:06:00,axn,30.07
2023-05-31T07:07:00,axn,29.98
2023-05-31T07:08:00,axn,30.48
2023-05-31T07:09:00,axn,29.93
2023-05-31T07:10:00,axn,30.16
2023-05-31T07:11:00,axn,30.21
2023-05-31T07:12:00,axn,30.28
2023-05-31T07:13:00,axn,30.31
2023-05-31T07:14:00,axn,30.22
2023-05-31T07:15:00,axn,30.24
2023-05-31T07:16:00,axn,30.07
2023-05-31T07:17:00,axn,30.15
2023-05-31T07:18:00,axn,30.10
2023-05-31T07:19:00,axn,29.83
2023-05-31T07:20:00,axn,29.92
2023-05-31T07:21:00,axn,29.99
2023-05-31T07:22:00,axn,29.87
2023-05-31T07:23:00,axn,29.91
2023-05-31T07:24:00,axn,29.76
2023-05-31T07:25:00,axn,29.84
2023-05-31T07:26:00,axn,29.94
2023-05-31T07:27:00,axn,29.90
2023-05-31T07:28:00,axn,29.84
2023-05-31T07:29:00,axn,29.85
2023-05-31T07:30:00,axn,29.97
2023-05-31T07:31:00,axn,29.82
2023-05-31T07:32:00,axn,29.80
2023-05-31T07:33:00,axn,29.94
2023-05-31T07:34:00,axn,29.91
2023-05-31T07:35:00,axn,30.06
2023-05-31T07:36:00,axn,30.04
2023-05-31T07:37:00,axn,30.00
2023-05-31T07:38:00,axn,30.01
2023-05-31T07:39:00,axn,30.59
2023-05-31T07:40:00,axn,30.27
2023-05-31T07:41:00,axn,30.13
2023-05-31T07:42:00,axn,30.08
2023-05-31T07:43:00,axn,30.13
2023-05-31T07:44:00,axn,30.02
2023-05-31T07:45:00,axn,29.83
2023-05-31T07:46:00,axn,30.21
2023-05-31T07:47:00,axn,30.07
2023-05-31T07:48:00,axn,30.07
2023-05-31T07:49:00,axn,30.14
2023-05-31T07:50:00,axn,30.46
2023-05-31T07:51:00,axn,30.16
2023-05-31T07:52:00,axn,30.30
2023-05-31T07:53:00,axn,30.32
2023-05-31T07:54:00,axn,29.93
2023-05-31T07:55:00,axn,30.18
2023-05-31T07:56:00,axn,30.33
2023-05-31T07:57:00,axn,30.46
2023-05-31T07:58:00,axn,30.61
2023-05-31T07:59:00,axn,30.35
2023-05-31T08:00:00,axn,30.54
2023-05-31T08:01:00,axn,30.20
2023-05-31T08:02:00,axn,34.11
2023-05-31T08:03:00,axn,34.07
2023-05-31T08:04:00,axn,33.88
2023-05-31T08:05:00,axn,33.74
2023-05-31T08:06:00,axn,34.28
2023-05-31T08:07:00,axn,34.07
2023-05-31T08:08:00,axn,34.11
2023-05-31T08:09:00,axn,34.27
2023-05-31T08:10:00,axn,34.27
2023-05-31T08:11:00,axn,34.14
2023-05-31T08:12:00,axn,34.36
2023-05-31T08:13:00,axn,34.48
2023-05-31T08:14:00,axn,34.04
2023-05-31T08:15:00,axn,37.48
2023-05-31T08:16:00,axn,37.55
2023-05-31T08:17:00,axn,37.22
2023-05-31T08:18:00,axn,34.31
2023-05-31T08:19:00,axn,34.37
2023-05-31T08:20:00,axn,34.39
2023-05-31T08:21:00,axn,34.40
2023-05-31T08:22:00,axn,34.37
2023-05-31T08:23:00,axn,34.31
2023-05-31T08:24:00,axn,35.02
2023-05-31T08:25:00,axn,34.43
2023-05-31T08:26:00,axn,34.58
2023-05-31T08:27:00,axn,34.27
2023-05-31T08:28:00,axn,34.12
2023-05-31T08:29:00,axn,34.40
2023-05-31T08:30:00,axn,34.27
2023-05-31T08:31:00,axn,38.96
2023-05-31T08:32:00,axn,38.66
2023-05-31T08:33:00,axn,38.67
2023-05-31T08:34:00,axn,34.16
2023-05-31T08:35:00,axn,34.21
2023-05-31T08:36:00,axn,34.61
2023-05-31T08:37:00,axn,34.86
2023-05-31T08:38:00,axn,34.27
2023-05-31T08:39:00,axn,34.30
2023-05-31T08:40:00,axn,34.21
2023-05-31T08:41:00,axn,34.50
2023-05-31T08:42:00,axn,34.22
2023-05-31T08:43:00,axn,34.36
2023-05-31T08:44:00,axn,34.47
2023-05-31T08:45:00,axn,34.37
2023-05-31T08:46:00,axn,34.30
2023-05-31T08:47:00,axn,34.24
2023-05-31T08:48:00,axn,34.30
2023-05-31T08:49:00,axn,34.24
2023-05-31T08:50:00,axn,34.41
2023-05-31T08:51:00,axn,34.44
2023-05-31T08:52:00,axn,34.25
2023-05-31T08:53:00,axn,33.75
2023-05-31T08:54:00,axn,34.14
2023-05-31T08:55:00,axn,33.90
2023-05-31T08:56:00,axn,33.69
2023-05-31T08:57:00,axn,33.63
2023-05-31T08:58:00,axn,33.34
2023-05-31T08:59:00,axn,33.03
2023-05-31T09:00:00,axn,33.12
2023-05-31T09:01:00,axn,33.28
2023-05-31T09:02:00,axn,33.12
2023-05-31T09:03:00,axn,33.17
2023-05-31T09:04:00,axn,33.05
2023-05-31T09:05:00,axn,33.60
2023-05-31T09:06:00,axn,33.77
2023-05-31T09:07:00,axn,33.65
2023-05-31T09:08:00,axn,33.98
2023-05-31T09:09:00,axn,34.03
2023-05-31T09:10:00,axn,33.98
2023-05-31T09:11:00,axn,33.99
2023-05-31T09:12:00,axn,33.98
2023-05-31T09:13:00,axn,33.85
2023-05-31T09:14:00,axn,33.64
2023-05-31T09:15:00,axn,33.64
2023-05-31T09:16:00,axn,33.87
2023-05-31T09:17:00,axn,34.24
2023-05-31T09:18:00,axn,34.18
2023-05-31T09:19:00,axn,33.76
2023-05-31T09:20:00,axn,33.70
2023-05-31T09:21:00,axn,34.29
2023-05-31T09:22:00,axn,34.02
2023-05-31T09:23:00,axn,33.79
2023-05-31T09:24:00,axn,33.87
2023-05-31T09:25:00,axn,34.20
2023-05-31T09:26:00,axn,33.78
2023-05-31T09:27:00,axn,33.68
2023-05-31T09:28:00,axn,33.58
2023-05-31T09:29:00,axn,33.41
2023-05-31T09:30:00,axn,33.34
2023-05-31T09:31:00,axn,33.52
2023-05-31T09:32:00,axn,33.76
2023-05-31T09:33:00,axn,33.91
2023-05-31T09:34:00,axn,33.56
2023-05-31T09:35:00,axn,33.80
2023-05-31T09:36:00,axn,33.73
2023-05-31T09:37:00,axn,33.93
2023-05-31T09:38:00,axn,33.89
2023-05-31T09:39:00,axn,33.45
2023-05-31T09:40:00,axn,33.78
2023-05-31T09:41:00,axn,33.85
2023-05-31T09:42:00,axn,34.12
2023-05-31T09:43:00,axn,34.14
2023-05-31T09:44:00,axn,34.03
2023-05-31T09:45:00,axn,34.12
2023-05-31T09:46:00,axn,34.34
2023-05-31T09:47:00,axn,34.19
2023-05-31T09:48:00,axn,33.94
2023-05-31T09:49:00,axn,34.77
2023-05-31T09:50:00,axn,36.87
2023-05-31T09:51:00,axn,34.20
2023-05-31T09:52:00,axn,33.90
2023-05-31T09:53:00,axn,33.95
2023-05-31T09:54:00,axn,33.77
2023-05-31T09:55:00,axn,34.26
2023-05-31T09:56:00,axn,34.50
2023-05-31T09:57:00,axn,34.55
2023-05-31T09:58:00,axn,34.61
2023-05-31T09:59:00,axn,34.92
2023-05-31T10:00:00,axn,34.43
2023-05-31T10:01:00,axn,34.41
2023-05-31T10:02:00,axn,34.07
2023-05-31T10:03:00,axn,34.16
2023-05-31T10:04:00,axn,34.27
2023-05-31T10:05:00,axn,34.20
2023-05-31T10:06:00,axn,33.98
2023-05-31T10:07:00,axn,34.02
2023-05-31T10:08:00,axn,34.04
2023-05-31T10:09:00,axn,34.01
2023-05-31T10:10:00,axn,33.91
2023-05-31T10:11:00,axn,34.31
2023-05-31T10:12:00,axn,34.42
2023-05-31T10:13:00,axn,34.19
2023-05-31T10:14:00,axn,33.84
2023-05-31T10:15:00,axn,33.88
2023-05-31T10:16:00,axn,33.76
2023-05-31T10:17:00,axn,33.88
2023-05-31T10:18:00,axn,33.75
2023-05-31T10:19:00,axn,33.98
2023-05-31T10:20:00,axn,34.47
2023-05-31T10:21:00,axn,34.41
2023-05-31T10:22:00,axn,34.25
2023-05-31T10:23:00,axn,34.22
2023-05-31T10:24:00,axn,34.27
2023-05-31T10:25:00,axn,34.34
2023-05-31T10:26:00,axn,34.07
2023-05-31T10:27:00,axn,34.29
2023-05-31T10:28:00,axn,34.54
2023-05-31T10:29:00,axn,34.26
2023-05-31T10:30:00,axn,34.24
2023-05-31T10:31:00,axn,34.82
2023-05-31T10:32:00,axn,34.52
2023-05-31T10:33:00,axn,49.35
2023-05-31T10:34:00,axn,49.36
2023-05-31T10:35:00,axn,49.04
2023-05-31T10:36:00,axn,48.55
2023-05-31T10:37:00,axn,48.56
2023-05-31T10:38:00,axn,47.98
2023-05-31T10:39:00,axn,34.58
2023-05-31T10:40:00,axn,34.85
2023-05-31T10:41:00,axn,34.72
2023-05-31T10:42:00,axn,34.29
2023-05-31T10:43:00,axn,34.08
2023-05-31T10:44:00,axn,34.75
2023-05-31T10:45:00,axn,34.58
2023-05-31T10:46:00,axn,34.93
2023-05-31T10:47:00,axn,34.66
2023-05-31T10:48:00,axn,34.45
2023-05-31T10:49:00,axn,34.39
2023-05-31T10:50:00,axn,34.08
2023-05-31T10:51:00,axn,34.15
2023-05-31T10:52:00,axn,34.00
2023-05-31T10:53:00,axn,34.62
2023-05-31T10:54:00,axn,34.37
2023-05-31T10:55:00,axn,34.34
2023-05-31T10:56:00,axn,34.46
2023-05-31T10:57:00,axn,34.49
2023-05-31T10:58:00,axn,34.56
2023-05-31T10:59:00,axn,34.61
2023-05-31T11:00:00,axn,34.82
2023-05-31T11:01:00,axn,34.42
2023-05-31T11:02:00,axn,34.27
2023-05-31T11:03:00,axn,34.67
2023-05-31T11:04:00,axn,34.56
2023-05-31T11:05:00,axn,34.74
2023-05-31T11:06:00,axn,34.39
2023-05-31T11:07:00,axn,34.75
2023-05-31T11:08:00,axn,34.63
2023-05-31T11:09:00,axn,35.10
2023-05-31T11:10:00,axn,35.40
2023-05-31T11:11:00,axn,35.26
2023-05-31T11:12:00,axn,35.02
2023-05-31T11:13:00,axn,35.17
2023-05-31T11:14:00,axn,34.56
2023-05-31T11:15:00,axn,34.71
2023-05-31T11:16:00,axn,35.31
2023-05-31T11:17:00,axn,35.15
2023-05-31T11:18:00,axn,34.54
2023-05-31T11:19:00,axn,34.30
2023-05-31T11:20:00,axn,34.38
2023-05-31T11:21:00,axn,34.52
2023-05-31T11:22:00,axn,34.45
2023-05-31T11:23:00,axn,34.46
2023-05-31T11:24:00,axn,34.42
2023-05-31T11:25:00,axn,34.75
2023-05-31T11:26:00,axn,34.53
2023-05-31T11:27:00,axn,34.45
2023-05-31T11:28:00,axn,34.53
2023-05-31T11:29:00,axn,34.78
2023-05-31T11:30:00,axn,34.69
2023-05-31T11:31:00,axn,35.02
2023-05-31T11:32:00,axn,34.60
2023-05-31T11:33:00,axn,34.73
2023-05-31T11:34:00,axn,34.76
2023-05-31T11:35:00,axn,34.92
2023-05-31T11:36:00,axn,57.22
2023-05-31T11:37:00,axn,34.64
2023-05-31T11:38:00,axn,35.09
2023-05-31T11:39:00,axn,34.68
2023-05-31T11:40:00,axn,34.83
2023-05-31T11:41:00,axn,34.44
2023-05-31T11:42:00,axn,34.39
2023-05-31T11:43:00,axn,34.45
2023-05-31T11:44:00,axn,34.85
2023-05-31T11:45:00,axn,34.53
2023-05-31T11:46:00,axn,35.63
2023-05-31T11:47:00,axn,37.21
2023-05-31T11:48:00,axn,37.37
2023-05-31T11:49:00,axn,37.43
2023-05-31T11:50:00,axn,34.85
2023-05-31T11:51:00,axn,34.86
2023-05-31T11:52:00,axn,34.50
2023-05-31T11:53:00,axn,34.54
2023-05-31T11:54:00,axn,34.72
2023-05-31T11:55:00,axn,34.64
2023-05-31T11:56:00,axn,34.32
2023-05-31T11:57:00,axn,34.67
2023-05-31T11:58:00,axn,34.05
2023-05-31T11:59:00,axn,34.01
2023-05-31T12:00:00,axn,34.35
2023-05-31T12:01:00,axn,34.01
2023-05-31T12:02:00,axn,34.19
2023-05-31T12:03:00,axn,34.32
2023-05-31T12:04:00,axn,34.42
2023-05-31T12:05:00,axn,40.01
2023-05-31T12:06:00,axn,39.97
2023-05-31T12:07:00,axn,40.06
2023-05-31T12:08:00,axn,36.14
2023-05-31T12:09:00,axn,34.55
2023-05-31T12:10:00,axn,34.25
2023-05-31T12:11:00,axn,34.21
2023-05-31T12:12:00,axn,44.37
2023-05-31T12:13:00,axn,44.67
2023-05-31T12:14:00,axn,44.42
2023-05-31T12:15:00,axn,44.50
2023-05-31T12:16:00,axn,44.07
2023-05-31T12:17:00,axn,34.18
2023-05-31T12:18:00,axn,34.02
2023-05-31T12:19:00,axn,34.08
2023-05-31T12:20:00,axn,34.31
2023-05-31T12:21:00,axn,34.12
2023-05-31T12:22:00,axn,34.55
2023-05-31T12:23:00,axn,34.93
2023-05-31T12:24:00,axn,34.27
2023-05-31T12:25:00,axn,34.25
2023-05-31T12:26:00,axn,34.22
2023-05-31T12:27:00,axn,34.42
2023-05-31T12:28:00,axn,34.46
2023-05-31T12:29:00,axn,34.59
2023-05-31T12:30:00,axn,34.19
2023-05-31T12:31:00,axn,33.98
2023-05-31T12:32:00,axn,34.05
2023-05-31T12:33:00,axn,34.29
2023-05-31T12:34:00,axn,34.32
2023-05-31T12:35:00,axn,34.19
2023-05-31T12:36:00,axn,34.25
2023-05-31T12:37:00,axn,34.12
2023-05-31T12:38:00,axn,34.38
2023-05-31T12:39:00,axn,34.36
2023-05-31T12:40:00,axn,34.15
2023-05-31T12:41:00,axn,34.22
2023-05-31T12:42:00,axn,34.15
2023-05-31T12:43:00,axn,37.12
2023-05-31T12:44:00,axn,37.03
2023-05-31T12:45:00,axn,34.07
2023-05-31T12:46:00,axn,34.49
2023-05-31T12:47:00,axn,34.22
2023-05-31T12:48:00,axn,34.53
2023-05-31T12:49:00,axn,34.15
2023-05-31T12:50:00,axn,34.80
2023-05-31T12:51:00,axn,34.71
2023-05-31T12:52:00,axn,34.46
2023-05-31T12:53:00,axn,34.80
2023-05-31T12:54:00,axn,34.65
2023-05-31T12:55:00,axn,34.50
2023-05-31T12:56:00,axn,34.48
2023-05-31T12:57:00,axn,34.57
2023-05-31T12:58:00,axn,34.97
2023-05-31T12:59:00,axn,35.19
2023-05-31T13:00:00,axn,34.98
2023-05-31T13:01:00,axn,34.95
2023-05-31T13:02:00,axn,34.99
2023-05-31T13:03:00,axn,51.31
2023-05-31T13:04:00,axn,35.16
2023-05-31T13:05:00,axn,35.33
2023-05-31T13:06:00,axn,34.77
2023-05-31T13:07:00,axn,34.85
2023-05-31T13:08:00,axn,34.83
2023-05-31T13:09:00,axn,34.88
2023-05-31T13:10:00,axn,35.01
2023-05-31T13:11:00,axn,34.97
2023-05-31T13:12:00,axn,36.82
2023-05-31T13:13:00,axn,36.93
2023-05-31T13:14:00,axn,36.59
2023-05-31T13:15:00,axn,36.58
2023-05-31T13:16:00,axn,36.68
2023-05-31T13:17:00,axn,36.73
2023-05-31T13:18:00,axn,36.67